SPWPC UKHH-UKHH

Flight info

Callsign SPWPC
Flight time 0h 10m
Altitude 1500
Route UKHH
Aircraft DA40/L-A1B2C2D2L1S1S2/S

Departure

Time 2026-04-13 21:20
Airport Kharkiv International Airport (UKHH)

Arrival

Time 2026-04-13 21:31
Airport Kharkiv International Airport (UKHH)
Time Latitude Longitude Altitude Speed Heading
2026-04-13 20:38 49.92229 36.28484 491 ft 0 kts 60°
2026-04-13 21:05 49.92233 36.28493 488 ft 0 kts 60°
2026-04-13 21:07 49.92230 36.28496 486 ft 1 kts 214°
2026-04-13 21:08 49.92203 36.28410 484 ft 13 kts 240°
2026-04-13 21:08 49.92166 36.28308 479 ft 0 kts 300°
2026-04-13 21:08 49.92166 36.28303 486 ft 2 kts 268°
2026-04-13 21:08 49.92154 36.28268 482 ft 7 kts 232°
2026-04-13 21:09 49.92150 36.28238 480 ft 3 kts 325°
2026-04-13 21:09 49.92178 36.28210 480 ft 6 kts 329°
2026-04-13 21:09 49.92223 36.28171 485 ft 7 kts 349°
2026-04-13 21:09 49.92267 36.28164 485 ft 6 kts 344°
2026-04-13 21:10 49.92310 36.28122 487 ft 7 kts 343°
2026-04-13 21:10 49.92351 36.28116 488 ft 6 kts
2026-04-13 21:10 49.92394 36.28110 487 ft 7 kts 351°
2026-04-13 21:10 49.92440 36.28105 488 ft 5 kts 356°
2026-04-13 21:11 49.92460 36.28115 492 ft 2 kts 31°
2026-04-13 21:11 49.92466 36.28126 491 ft 0 kts 72°
2026-04-13 21:12 49.92466 36.28127 491 ft 0 kts 75°
2026-04-13 21:17 49.92467 36.28129 491 ft 1 kts 32°
2026-04-13 21:17 49.92495 36.28141 495 ft 5 kts 21°
2026-04-13 21:18 49.92524 36.28177 492 ft 6 kts 52°
2026-04-13 21:18 49.92563 36.28253 500 ft 10 kts 56°
2026-04-13 21:18 49.92603 36.28358 503 ft 12 kts 68°
2026-04-13 21:18 49.92636 36.28497 505 ft 14 kts 73°
2026-04-13 21:19 49.92641 36.28530 505 ft 0 kts 73°
2026-04-13 21:19 49.92655 36.28682 507 ft 33 kts 84°
2026-04-13 21:19 49.92697 36.29200 508 ft 61 kts 83°
2026-04-13 21:20 49.92751 36.29934 597 ft 76 kts 83°
2026-04-13 21:20 49.92798 36.30767 763 ft 79 kts 79°
2026-04-13 21:20 49.92864 36.31599 1000 ft 77 kts 79°
2026-04-13 21:20 49.93049 36.32323 1180 ft 75 kts 30°
2026-04-13 21:21 49.93536 36.32353 1318 ft 73 kts 345°
2026-04-13 21:21 49.94019 36.32106 1487 ft 73 kts 341°
2026-04-13 21:21 49.94366 36.31561 1532 ft 87 kts 290°
2026-04-13 21:21 49.94318 36.30592 1653 ft 87 kts 265°
2026-04-13 21:22 49.94136 36.29648 1682 ft 92 kts 266°
2026-04-13 21:22 49.94003 36.28692 1761 ft 92 kts 263°
2026-04-13 21:22 49.93830 36.27704 1833 ft 94 kts 260°
2026-04-13 21:22 49.93615 36.26731 1864 ft 94 kts 264°
2026-04-13 21:23 49.93256 36.25795 1770 ft 119 kts 208°
2026-04-13 21:23 49.92461 36.25778 1852 ft 109 kts 165°
2026-04-13 21:23 49.91681 36.25944 1806 ft 119 kts 168°
2026-04-13 21:23 49.91162 36.26601 1814 ft 91 kts 72°
2026-04-13 21:24 49.91722 36.26946 1478 ft 109 kts
2026-04-13 21:24 49.92372 36.27242 1616 ft 87 kts 53°
2026-04-13 21:24 49.92560 36.28100 1664 ft 88 kts 82°
2026-04-13 21:24 49.92600 36.29131 1528 ft 96 kts 75°
2026-04-13 21:25 49.92681 36.30127 1474 ft 99 kts 86°
2026-04-13 21:25 49.92582 36.31147 1585 ft 92 kts 96°
2026-04-13 21:25 49.92445 36.32184 1511 ft 94 kts 79°
2026-04-13 21:25 49.92715 36.33018 1565 ft 85 kts 49°
2026-04-13 21:26 49.93155 36.33566 1567 ft 84 kts 17°
2026-04-13 21:26 49.93666 36.33610 1712 ft 74 kts
2026-04-13 21:26 49.94183 36.33404 1559 ft 96 kts 315°
2026-04-13 21:26 49.94183 36.32327 1609 ft 101 kts 263°
2026-04-13 21:27 49.94012 36.31267 1635 ft 99 kts 264°
2026-04-13 21:27 49.93890 36.30197 1621 ft 102 kts 272°
2026-04-13 21:27 49.93739 36.29075 1612 ft 106 kts 263°
2026-04-13 21:27 49.93552 36.27933 1550 ft 114 kts 265°
2026-04-13 21:28 49.93433 36.26742 1562 ft 111 kts 272°
2026-04-13 21:28 49.93365 36.25537 1537 ft 112 kts 273°
2026-04-13 21:28 49.93335 36.24337 1526 ft 109 kts 280°
2026-04-13 21:28 49.93292 36.23178 1559 ft 114 kts 255°
2026-04-13 21:29 49.92700 36.22288 1453 ft 125 kts 201°
2026-04-13 21:29 49.91893 36.22370 1528 ft 109 kts 144°
2026-04-13 21:29 49.91673 36.23278 1518 ft 90 kts 54°
2026-04-13 21:29 49.92030 36.24104 1411 ft 96 kts 51°
2026-04-13 21:30 49.92352 36.24982 1362 ft 99 kts 74°
2026-04-13 21:30 49.92428 36.26029 1021 ft 100 kts 78°
2026-04-13 21:30 49.92534 36.27140 625 ft 107 kts 81°
2026-04-13 21:30 49.92617 36.28208 506 ft 88 kts 82°
2026-04-13 21:31 49.92689 36.28834 507 ft 24 kts 78°
2026-04-13 21:31 49.92682 36.28884 508 ft 0 kts 78°
2026-04-13 21:32 49.92684 36.28891 508 ft 5 kts 69°
2026-04-13 21:32 49.92695 36.29116 508 ft 40 kts 85°
2026-04-13 21:32 49.92758 36.29690 517 ft 69 kts 82°
2026-04-13 21:32 49.92798 36.30532 608 ft 85 kts 80°
2026-04-13 21:33 49.92875 36.31418 873 ft 79 kts 75°
2026-04-13 21:33 49.92970 36.32298 1068 ft 85 kts 80°
2026-04-13 21:33 49.93020 36.33238 1274 ft 87 kts 78°
2026-04-13 21:34 49.93096 36.34947 1667 ft 72 kts 52°
2026-04-13 21:34 49.93552 36.35179 1630 ft 80 kts 346°
2026-04-13 21:34 49.94066 36.34884 1649 ft 78 kts 351°
2026-04-13 21:34 49.94597 36.34640 1686 ft 80 kts 341°
2026-04-13 21:35 49.94858 36.33777 1666 ft 101 kts 274°
2026-04-13 21:35 49.94743 36.32778 1762 ft 93 kts 265°
2026-04-13 21:35 49.94380 36.30685 1664 ft 107 kts 262°
2026-04-13 21:36 49.94182 36.29540 1562 ft 116 kts 262°
2026-04-13 21:36 49.93982 36.28322 1453 ft 121 kts 264°
2026-04-13 21:36 49.93804 36.27083 1478 ft 115 kts 264°
2026-04-13 21:36 49.93610 36.25897 1466 ft 111 kts 266°
2026-04-13 21:37 49.93500 36.24775 1484 ft 105 kts 273°
2026-04-13 21:37 49.93445 36.23647 1480 ft 107 kts 272°
2026-04-13 21:37 49.93087 36.22591 1303 ft 127 kts 208°
2026-04-13 21:37 49.92304 36.22718 1325 ft 114 kts 140°
2026-04-13 21:38 49.91920 36.23710 1273 ft 107 kts 89°
2026-04-13 21:38 49.92078 36.24763 1255 ft 94 kts 66°
2026-04-13 21:38 49.92301 36.25735 1066 ft 101 kts 68°
2026-04-13 21:38 49.92488 36.26761 817 ft 97 kts 76°
2026-04-13 21:39 49.92586 36.27799 545 ft 92 kts 82°
2026-04-13 21:39 49.92650 36.28652 511 ft 66 kts 77°
2026-04-13 21:39 49.92680 36.28995 507 ft 0 kts 78°
2026-04-13 21:39 49.92694 36.29151 508 ft 35 kts 82°
2026-04-13 21:40 49.92740 36.29694 511 ft 63 kts 84°
2026-04-13 21:40 49.92807 36.30464 570 ft 79 kts 85°
2026-04-13 21:40 49.92843 36.31357 750 ft 84 kts 82°
2026-04-13 21:40 49.92887 36.32261 1007 ft 80 kts 84°
2026-04-13 21:41 49.92832 36.33110 1249 ft 77 kts 95°
2026-04-13 21:41 49.92700 36.33912 1422 ft 78 kts 98°
2026-04-13 21:41 49.92657 36.34683 1564 ft 68 kts 62°
2026-04-13 21:41 49.92984 36.35155 1608 ft 63 kts 18°
2026-04-13 21:42 49.93416 36.35227 1649 ft 62 kts
2026-04-13 21:42 49.93823 36.35302 1672 ft 56 kts
2026-04-13 21:42 49.94209 36.35202 1559 ft 67 kts 328°
2026-04-13 21:42 49.94302 36.34407 1484 ft 81 kts 266°
2026-04-13 21:43 49.94178 36.33587 1509 ft 77 kts 268°
2026-04-13 21:43 49.94062 36.32778 1484 ft 76 kts 268°
2026-04-13 21:43 49.93956 36.31971 1460 ft 80 kts 270°
2026-04-13 21:43 49.93869 36.31070 1463 ft 83 kts 269°
2026-04-13 21:44 49.93771 36.30187 1483 ft 84 kts 268°
2026-04-13 21:44 49.93667 36.29304 1533 ft 83 kts 268°
2026-04-13 21:44 49.93553 36.28417 1573 ft 86 kts 267°
2026-04-13 21:44 49.93435 36.27475 1586 ft 92 kts 269°
2026-04-13 21:45 49.93322 36.26483 1596 ft 94 kts 272°
2026-04-13 21:45 49.93228 36.25450 1556 ft 100 kts 274°
2026-04-13 21:45 49.93049 36.24386 1520 ft 109 kts 242°
2026-04-13 21:45 49.92400 36.23809 1549 ft 109 kts 187°
2026-04-13 21:46 49.91732 36.24117 1495 ft 99 kts 117°
2026-04-13 21:46 49.91774 36.25016 1373 ft 84 kts 54°
2026-04-13 21:46 49.92161 36.25771 1173 ft 91 kts 51°
2026-04-13 21:46 49.92459 36.26584 922 ft 88 kts 72°
2026-04-13 21:47 49.92568 36.27542 599 ft 93 kts 83°
2026-04-13 21:47 49.92639 36.28439 505 ft 72 kts 81°
2026-04-13 21:47 49.92683 36.28996 508 ft 55 kts 81°
2026-04-13 21:47 49.92741 36.29737 540 ft 81 kts 83°
2026-04-13 21:48 49.92819 36.30629 735 ft 83 kts 79°
2026-04-13 21:48 49.92919 36.31518 939 ft 79 kts 70°
2026-04-13 21:48 49.93291 36.32006 1012 ft 71 kts
2026-04-13 21:48 49.93664 36.31536 1073 ft 76 kts 289°
2026-04-13 21:49 49.93602 36.30679 1230 ft 82 kts 264°
2026-04-13 21:49 49.93490 36.29809 1404 ft 80 kts 267°
2026-04-13 21:49 49.93385 36.28995 1455 ft 77 kts 270°
2026-04-13 21:49 49.93326 36.28184 1499 ft 75 kts 278°
2026-04-13 21:50 49.93293 36.27356 1493 ft 80 kts 277°
2026-04-13 21:50 49.93261 36.26482 1538 ft 83 kts 278°
2026-04-13 21:50 49.93256 36.25589 1580 ft 84 kts 275°
2026-04-13 21:50 49.93201 36.24650 1573 ft 91 kts 278°
2026-04-13 21:51 49.93206 36.23664 1587 ft 92 kts 283°
2026-04-13 21:51 49.93121 36.22683 1567 ft 105 kts 233°
2026-04-13 21:51 49.92462 36.22613 1527 ft 95 kts 130°
2026-04-13 21:51 49.92270 36.23519 1405 ft 84 kts 85°
2026-04-13 21:52 49.92281 36.24345 1292 ft 75 kts 80°
2026-04-13 21:52 49.92341 36.25118 1107 ft 76 kts 77°
2026-04-13 21:52 49.92419 36.25949 996 ft 78 kts 75°
2026-04-13 21:52 49.92488 36.26744 768 ft 74 kts 79°
2026-04-13 21:53 49.92560 36.27530 529 ft 71 kts 82°
2026-04-13 21:53 49.92599 36.28070 499 ft 11 kts 79°
2026-04-13 21:53 49.92613 36.28188 501 ft 29 kts 80°
2026-04-13 21:53 49.92654 36.28646 506 ft 55 kts 81°
2026-04-13 21:54 49.92716 36.29308 508 ft 69 kts 76°
2026-04-13 21:54 49.92769 36.30093 578 ft 83 kts 84°
2026-04-13 21:54 49.92835 36.31017 768 ft 85 kts 82°
2026-04-13 21:54 49.93005 36.31810 1000 ft 77 kts 33°
2026-04-13 21:55 49.93519 36.31833 1226 ft 69 kts 337°
2026-04-13 21:55 49.93625 36.31076 1278 ft 83 kts 261°
2026-04-13 21:55 49.93521 36.30237 1332 ft 79 kts 268°
2026-04-13 21:55 49.93443 36.29428 1375 ft 76 kts 270°
2026-04-13 21:56 49.93389 36.28538 1370 ft 87 kts 275°
2026-04-13 21:56 49.93357 36.27610 1459 ft 85 kts 273°
2026-04-13 21:56 49.93284 36.26722 1540 ft 83 kts 274°
2026-04-13 21:56 49.93291 36.25842 1580 ft 83 kts 280°
2026-04-13 21:57 49.93284 36.24925 1616 ft 86 kts 281°
2026-04-13 21:57 49.93280 36.23990 1640 ft 90 kts 281°
2026-04-13 21:57 49.93127 36.23014 1637 ft 106 kts 231°
2026-04-13 21:57 49.92446 36.22828 1643 ft 101 kts 148°
2026-04-13 21:58 49.92072 36.23597 1667 ft 85 kts 88°
2026-04-13 21:58 49.92121 36.24475 1632 ft 76 kts 68°
2026-04-13 21:58 49.92236 36.25272 1454 ft 75 kts 66°
2026-04-13 21:58 49.92414 36.26056 1155 ft 79 kts 71°
2026-04-13 21:59 49.92525 36.26949 816 ft 89 kts 81°
2026-04-13 21:59 49.92579 36.27847 664 ft 77 kts 80°
2026-04-13 21:59 49.92658 36.28712 703 ft 87 kts 82°
2026-04-13 21:59 49.92749 36.29661 827 ft 89 kts 76°
2026-04-13 22:00 49.92804 36.30564 1017 ft 83 kts 82°
2026-04-13 22:00 49.92990 36.31369 1168 ft 78 kts 51°
2026-04-13 22:00 49.93349 36.31977 1309 ft 76 kts 33°
2026-04-13 22:00 49.93780 36.32287 1501 ft 68 kts 14°
2026-04-13 22:01 49.94250 36.32418 1607 ft 69 kts
2026-04-13 22:01 49.94743 36.32408 1598 ft 76 kts
2026-04-13 22:01 49.95282 36.32392 1616 ft 76 kts 11°
2026-04-13 22:01 49.95758 36.32698 1696 ft 67 kts 20°
2026-04-13 22:02 49.96238 36.32959 1657 ft 80 kts 14°
2026-04-13 22:02 49.96769 36.33098 1818 ft 70 kts 13°
2026-04-13 22:02 49.97327 36.33248 1663 ft 94 kts 10°
2026-04-13 22:02 49.98015 36.33420 1483 ft 104 kts
2026-04-13 22:03 49.98702 36.33598 1477 ft 99 kts 15°
2026-04-13 22:03 49.99369 36.33805 1482 ft 97 kts 11°
2026-04-13 22:03 50.00037 36.34038 1448 ft 98 kts 13°
2026-04-13 22:03 50.00697 36.34227 1457 ft 96 kts
2026-04-13 22:04 50.01346 36.34403 1462 ft 92 kts 12°
2026-04-13 22:04 50.01936 36.34584 1544 ft 87 kts 13°
2026-04-13 22:04 50.02539 36.34800 1535 ft 90 kts 12°
2026-04-13 22:04 50.03161 36.34896 1552 ft 90 kts
2026-04-13 22:05 50.03780 36.35016 1582 ft 86 kts
2026-04-13 22:05 50.04399 36.35128 1511 ft 94 kts
2026-04-13 22:05 50.04963 36.35507 1577 ft 88 kts 45°
2026-04-13 22:05 50.05451 36.36062 1551 ft 92 kts 27°
2026-04-13 22:06 50.06001 36.36581 1533 ft 93 kts 29°
2026-04-13 22:06 50.06544 36.37111 1512 ft 94 kts 30°
2026-04-13 22:06 50.07118 36.37611 1456 ft 95 kts 29°
2026-04-13 22:06 50.07675 36.38136 1475 ft 94 kts 28°
2026-04-13 22:07 50.08228 36.38636 1534 ft 90 kts 28°
2026-04-13 22:07 50.08775 36.39123 1597 ft 86 kts 28°
2026-04-13 22:07 50.09331 36.39607 1520 ft 95 kts 28°
2026-04-13 22:07 50.09914 36.40137 1481 ft 99 kts 30°
2026-04-13 22:08 50.10501 36.40737 1444 ft 103 kts 31°
2026-04-13 22:08 50.11100 36.41307 1454 ft 102 kts 26°
2026-04-13 22:08 50.11684 36.41848 1511 ft 98 kts 30°
2026-04-13 22:08 50.12241 36.42404 1563 ft 92 kts 30°
2026-04-13 22:09 50.12795 36.42958 1459 ft 98 kts 31°
2026-04-13 22:09 50.13351 36.43560 1427 ft 97 kts 34°
2026-04-13 22:09 50.13805 36.44254 1548 ft 91 kts 65°
2026-04-13 22:09 50.13549 36.45217 1524 ft 117 kts 150°
2026-04-13 22:10 50.12767 36.44947 1514 ft 121 kts 218°
2026-04-13 22:10 50.12038 36.44271 1512 ft 122 kts 210°
2026-04-13 22:10 50.11309 36.43603 1493 ft 122 kts 214°
2026-04-13 22:10 50.10580 36.42866 1463 ft 123 kts 215°
2026-04-13 22:11 50.09881 36.42154 1483 ft 122 kts 217°
2026-04-13 22:11 50.09180 36.41439 1556 ft 109 kts 214°
2026-04-13 22:11 50.08556 36.40837 1569 ft 111 kts 213°
2026-04-13 22:11 50.07884 36.40212 1547 ft 110 kts 212°
2026-04-13 22:12 50.07221 36.39606 1560 ft 110 kts 212°
2026-04-13 22:12 50.06567 36.38982 1564 ft 109 kts 213°
2026-04-13 22:12 50.05900 36.38362 1528 ft 113 kts 215°
2026-04-13 22:12 50.05235 36.37743 1534 ft 111 kts 212°
2026-04-13 22:13 50.04567 36.37152 1537 ft 112 kts 212°
2026-04-13 22:13 50.03904 36.36532 1540 ft 111 kts 214°
2026-04-13 22:13 50.03471 36.35714 1622 ft 90 kts 271°
2026-04-13 22:13 50.03580 36.34838 1678 ft 85 kts 297°
2026-04-13 22:14 50.03760 36.33890 1578 ft 96 kts 295°
2026-04-13 22:14 50.03968 36.32914 1581 ft 93 kts 298°
2026-04-13 22:14 50.04236 36.32007 1563 ft 93 kts 306°
2026-04-13 22:14 50.04545 36.31049 1408 ft 104 kts 302°
2026-04-13 22:15 50.04727 36.30011 1274 ft 101 kts 270°
2026-04-13 22:15 50.04379 36.29087 1155 ft 95 kts 232°
2026-04-13 22:15 50.03981 36.28332 977 ft 86 kts 212°
2026-04-13 22:15 50.03529 36.27801 776 ft 73 kts 215°
2026-04-13 22:16 50.03149 36.27383 610 ft 63 kts 215°
2026-04-13 22:16 50.02876 36.27085 593 ft 31 kts 226°
2026-04-13 22:16 50.02819 36.27018 591 ft 0 kts 214°
2026-04-13 22:16 50.02824 36.27019 592 ft 6 kts 31°
2026-04-13 22:17 50.02874 36.27069 593 ft 12 kts 36°
2026-04-13 22:17 50.02957 36.27162 595 ft 18 kts 37°
2026-04-13 22:17 50.03067 36.27277 596 ft 20 kts 31°
2026-04-13 22:17 50.03151 36.27368 598 ft 9 kts 59°
2026-04-13 22:18 50.03171 36.27441 598 ft 5 kts 87°
2026-04-13 22:18 50.03158 36.27487 598 ft 8 kts 123°
2026-04-13 22:18 50.03117 36.27592 598 ft 15 kts 118°
2026-04-13 22:18 50.03068 36.27701 598 ft 11 kts 121°
2026-04-13 22:19 50.03030 36.27796 598 ft 9 kts 123°
2026-04-13 22:19 50.03005 36.27830 598 ft 1 kts 171°
2026-04-13 22:19 50.02983 36.27826 598 ft 5 kts 199°
2026-04-13 22:19 50.02957 36.27799 597 ft 3 kts 229°
2026-04-13 22:20 50.02949 36.27756 598 ft 6 kts 262°
2026-04-13 22:20 50.02947 36.27720 596 ft 0 kts 266°